Weather History for KBJI - August, 2013

Change the Weather History Date:

Thursday, August 29, 2013

  Actual Average Record
Temperature  
Mean Temperature 74 °F -  
Max Temperature 83 °F 75 °F 93 °F (1984)
Min Temperature 66 °F 54 °F 37 °F (1976)
Cooling Degree Days 10    
Growing Degree Days 24 (Base 50)    
Moisture  
Dew Point 68 °F    
Average Humidity 87    
Maximum Humidity 95    
Minimum Humidity 70    
Precipitation  
Precipitation 0.20 in - - ()
Sea Level Pressure  
Sea Level Pressure 29.92 in    
Wind  
Wind Speed 7 mph (SE)    
Max Wind Speed 23 mph    
Max Gust Speed 29 mph    
Visibility 10 miles    
Events Rain , Thunderstorm    
Averages and records for this station are not official NWS values.
T = Trace of Precipitation, MM = Missing Value Source: NWS Daily Summary

Daily Weather History Graph

Daily Weather History Graph

Search for Another Location

Airport or City:

Trip Planner

Search our weather history database for the weather conditions in past years. The results will help you decide how hot, cold, wet, or windy it might be!

Date:

Astronomy

Aug. 29, 2013 Rise Set
Actual Time 6:34 AM CDT 8:05 PM CDT
Civil Twilight 6:02 AM CDT 8:37 PM CDT
Nautical Twilight 5:23 AM CDT 9:16 PM CDT
Astronomical Twilight 4:41 AM CDT 9:58 PM CDT
Moon 12:14 AM CDT (8/29) 3:47 PM CDT (8/29)
Length of Visible Light 14h 34m
Length of Day
13h 30m
Last Quarter, 38% of the Moon is Illuminated
Aug 29
Last Quarter
Sep 5
New
Sep 12
First Quarter
Sep 19
Full
Sep 26
Last Quarter

Hourly Weather History & Observations

Time (CDT) Temp. Heat Index Dew Point Humidity Pressure Visibility Wind Dir Wind Speed Gust Speed Precip Events Conditions
12:13 AM 72.1 °F - 69.8 °F 92% 30.02 in 10.0 mi ESE 6.9 mph - N/A   Clear
12:33 AM 71.8 °F - 69.8 °F 93% 30.02 in 10.0 mi SE 6.9 mph - N/A   Clear
12:54 AM 71.6 °F - 69.3 °F 92% 30.02 in 10.0 mi SSE 8.1 mph - N/A   Clear
1:13 AM 70.5 °F - 68.9 °F 95% 30.02 in 10.0 mi SE 4.6 mph - N/A   Clear
1:33 AM 70.5 °F - 68.9 °F 95% 30.02 in 10.0 mi SE 5.8 mph - N/A   Scattered Clouds
1:54 AM 70.5 °F - 68.7 °F 94% 30.02 in 10.0 mi SSE 6.9 mph - N/A   Scattered Clouds
2:14 AM 70.7 °F - 68.9 °F 94% 30.01 in 10.0 mi SSE 8.1 mph - N/A   Clear
2:33 AM 70.7 °F - 68.4 °F 92% 30.00 in 10.0 mi SSE 9.2 mph - N/A   Clear
2:54 AM 70.7 °F - 68.0 °F 91% 30.00 in 10.0 mi SSE 8.1 mph - N/A   Clear
3:14 AM 70.7 °F - 67.5 °F 89% 30.00 in 10.0 mi SSE 8.1 mph - N/A   Clear
3:33 AM 70.7 °F - 67.3 °F 89% 30.00 in 10.0 mi SSE 6.9 mph - N/A   Clear
3:53 AM 70.7 °F - 66.6 °F 87% 29.99 in 10.0 mi SE 5.8 mph - N/A   Clear
4:14 AM 70.5 °F - 65.8 °F 85% 29.98 in 10.0 mi SSE 6.9 mph - N/A   Clear
4:33 AM 70.5 °F - 64.9 °F 82% 29.97 in 10.0 mi SSE 5.8 mph - N/A   Clear
4:54 AM 70.3 °F - 64.6 °F 82% 29.97 in 10.0 mi SE 5.8 mph - N/A   Clear
5:13 AM 70.0 °F - 64.9 °F 84% 29.96 in 10.0 mi SE 5.8 mph - N/A   Clear
5:33 AM 69.8 °F - 64.9 °F 84% 29.96 in 10.0 mi SE 5.8 mph - N/A   Clear
5:54 AM 69.4 °F - 64.9 °F 86% 29.96 in 10.0 mi SE 6.9 mph - N/A   Clear
6:13 AM 69.3 °F - 65.1 °F 87% 29.96 in 10.0 mi SE 4.6 mph - N/A   Clear
6:33 AM 68.5 °F - 65.3 °F 89% 29.96 in 10.0 mi SE 4.6 mph - N/A   Clear
6:54 AM 69.3 °F - 65.8 °F 89% 29.95 in 10.0 mi SE 5.8 mph - N/A   Scattered Clouds
7:13 AM 70.0 °F - 66.2 °F 88% 29.94 in 10.0 mi SE 6.9 mph - N/A   Clear
7:33 AM 70.7 °F - 66.7 °F 87% 29.95 in 10.0 mi SE 5.8 mph - N/A   Clear
7:54 AM 70.7 °F - 67.1 °F 88% 29.95 in 10.0 mi ESE 5.8 mph - N/A   Scattered Clouds
8:14 AM 71.2 °F - 67.6 °F 88% 29.94 in 10.0 mi SE 6.9 mph - N/A   Scattered Clouds
8:33 AM 71.4 °F - 68.2 °F 89% 29.93 in 10.0 mi SE 6.9 mph - N/A Rain Light Rain
8:53 AM 71.2 °F - 68.7 °F 92% 29.94 in 10.0 mi SE 8.1 mph - N/A Thunderstorm Unknown
9:13 AM 70.9 °F - 69.3 °F 95% 30.01 in 7.0 mi West 23.0 mph 28.8 mph N/A Rain , Thunderstorm Rain
9:33 AM 67.5 °F - 64.4 °F 90% 29.96 in 7.0 mi WNW 16.1 mph 20.7 mph 0.05 in Rain , Thunderstorm Thunderstorms and Rain
9:54 AM 67.1 °F - 64.6 °F 92% 29.98 in 7.0 mi WNW 4.6 mph - 0.10 in Rain , Thunderstorm Thunderstorms and Rain
10:13 AM 68.0 °F - 64.8 °F 89% 29.97 in 10.0 mi SSW 6.9 mph - 0.03 in Rain , Thunderstorm Thunderstorms and Rain
10:33 AM 66.6 °F - 64.9 °F 95% 29.91 in 10.0 mi SSE 18.4 mph 21.9 mph 0.07 in Rain , Thunderstorm Thunderstorms and Rain
10:53 AM 66.6 °F - 64.9 °F 95% 29.87 in 10.0 mi SE 18.4 mph 26.5 mph 0.10 in Rain , Thunderstorm Light Thunderstorms and Rain
11:13 AM 67.3 °F - 64.9 °F 92% 29.85 in 10.0 mi SSE 12.7 mph 18.4 mph N/A Thunderstorm Scattered Clouds
11:33 AM 69.3 °F - 66.4 °F 91% 29.84 in 10.0 mi South 10.4 mph - N/A   Clear
11:53 AM 71.2 °F - 67.1 °F 87% 29.85 in 10.0 mi South 12.7 mph - N/A   Clear
12:13 PM 73.4 °F - 68.0 °F 83% 29.85 in 10.0 mi SSE 11.5 mph 16.1 mph N/A   Clear
12:33 PM 72.9 °F - 66.9 °F 82% 29.86 in 10.0 mi SE 10.4 mph - N/A   Scattered Clouds
12:54 PM 73.9 °F - 67.5 °F 80% 29.85 in 10.0 mi SSE 9.2 mph - N/A   Scattered Clouds
1:13 PM 75.0 °F - 68.0 °F 79% 29.88 in 10.0 mi West 3.5 mph - N/A   Clear
1:33 PM 76.6 °F - 68.5 °F 76% 29.91 in 10.0 mi West 8.1 mph - N/A   Mostly Cloudy
1:54 PM 77.5 °F - 69.3 °F 76% 29.89 in 10.0 mi SSE 4.6 mph - N/A   Mostly Cloudy
2:13 PM 79.3 °F - 69.8 °F 72% 29.89 in 10.0 mi ESE 6.9 mph - N/A   Scattered Clouds
2:33 PM 80.1 °F 83.3 °F 70.3 °F 72% 29.87 in 0.8 mi SE 8.1 mph - N/A   Haze
2:53 PM 80.2 °F 83.7 °F 70.9 °F 73% 29.87 in 7.0 mi SSE 6.9 mph - N/A   Scattered Clouds
3:13 PM 81.9 °F 86.2 °F 71.4 °F 70% 29.87 in 10.0 mi ESE 8.1 mph - N/A   Scattered Clouds
3:33 PM 83.3 °F 89.0 °F 72.5 °F 70% 29.85 in 7.0 mi SSE 11.5 mph - N/A   Mostly Cloudy
3:54 PM 78.4 °F - 71.2 °F 78% 29.85 in 7.0 mi SE 12.7 mph - N/A   Mostly Cloudy
4:13 PM 77.0 °F - 71.8 °F 84% 29.84 in 10.0 mi ESE 11.5 mph - N/A Rain Light Rain
4:33 PM 77.0 °F - 72.5 °F 86% 29.84 in 10.0 mi SE 4.6 mph - N/A Thunderstorm Overcast
4:54 PM 77.2 °F - 72.3 °F 85% 29.85 in 7.0 mi Calm Calm - N/A Thunderstorm Thunderstorm
5:13 PM 76.6 °F - 71.8 °F 85% 29.85 in 10.0 mi East 8.1 mph - N/A   Overcast
5:33 PM 77.7 °F - 71.8 °F 82% 29.84 in 10.0 mi ESE 8.1 mph - N/A   Mostly Cloudy
5:54 PM 78.1 °F - 71.8 °F 81% 29.85 in 10.0 mi East 5.8 mph - N/A   Scattered Clouds
6:13 PM 77.4 °F - 71.8 °F 83% 29.85 in 10.0 mi ENE 10.4 mph - N/A   Mostly Cloudy
6:33 PM 76.1 °F - 71.6 °F 86% 29.86 in 7.0 mi East 5.8 mph - N/A   Overcast
6:53 PM 75.9 °F - 72.0 °F 87% 29.86 in 10.0 mi East 6.9 mph - N/A   Overcast
7:13 PM 75.2 °F - 71.8 °F 89% 29.86 in 10.0 mi East 3.5 mph - N/A   Overcast
7:33 PM 75.2 °F - 71.6 °F 89% 29.86 in 7.0 mi Calm Calm - N/A   Mostly Cloudy
7:54 PM 74.5 °F - 71.2 °F 90% 29.86 in 10.0 mi Calm Calm - N/A   Clear
8:13 PM 72.7 °F - 70.9 °F 94% 29.87 in 10.0 mi Calm Calm - N/A   Clear
8:33 PM 71.4 °F - 69.8 °F 95% 29.88 in 10.0 mi Calm Calm - N/A   Clear
8:53 PM 71.8 °F - 69.8 °F 93% 29.88 in 10.0 mi NW 3.5 mph - N/A   Clear
9:13 PM 72.9 °F - 69.4 °F 89% 29.89 in 10.0 mi NNW 9.2 mph - N/A   Clear
9:33 PM 72.5 °F - 69.4 °F 90% 29.90 in 10.0 mi NNW 6.9 mph - N/A   Clear
9:53 PM 72.3 °F - 69.3 °F 90% 29.91 in 10.0 mi North 9.2 mph - N/A   Clear
10:13 PM 71.6 °F - 68.7 °F 91% 29.91 in 10.0 mi North 11.5 mph 16.1 mph N/A   Clear
10:33 PM 70.7 °F - 67.6 °F 90% 29.92 in 10.0 mi North 8.1 mph - N/A   Scattered Clouds
10:54 PM 69.6 °F - 66.4 °F 89% 29.91 in 10.0 mi North 6.9 mph - N/A   Scattered Clouds
11:14 PM 68.9 °F - 66.0 °F 90% 29.92 in 10.0 mi North 6.9 mph - N/A   Scattered Clouds
11:33 PM 68.2 °F - 65.7 °F 92% 29.92 in 10.0 mi North 5.8 mph - N/A   Scattered Clouds
11:54 PM 67.8 °F - 65.5 °F 92% 29.92 in 10.0 mi NNW 5.8 mph - N/A   Scattered Clouds